This is the latest recevied weather packets stored in our database for station/object OE3PYC-10. If no packets are shown the sender has not sent any weather packets the latest 10 day(s).
| Time | Temp. | Humidity | Pressure | Rain* | Wind** | Luminosity | Snow |
|---|---|---|---|---|---|---|---|
| 1777476593 | 22.78° C | 28% | 1023.4 hPa | - | - | - | - |
| 1777475692 | 22.78° C | 28% | 1023.5 hPa | - | - | - | - |
| 1777474792 | 22.78° C | 28% | 1023.3 hPa | - | - | - | - |
| 1777473892 | 22.78° C | 27% | 1023.2 hPa | - | - | - | - |
| 1777472992 | 22.78° C | 27% | 1023.3 hPa | - | - | - | - |
| 1777472092 | 22.78° C | 27% | 1023.3 hPa | - | - | - | - |
| 1777471192 | 22.78° C | 27% | 1023.5 hPa | - | - | - | - |
| 1777470292 | 22.78° C | 25% | 1023.5 hPa | - | - | - | - |
| 1777469392 | 22.22° C | 24% | 1023.5 hPa | - | - | - | - |
| 1777468492 | 21.67° C | 23% | 1023.5 hPa | - | - | - | - |
| 1777467592 | 22.22° C | 23% | 1023.5 hPa | - | - | - | - |
| 1777466691 | 22.22° C | 25% | 1023.5 hPa | - | - | - | - |
| 1777465791 | 23.33° C | 30% | 1023.7 hPa | - | - | - | - |
| 1777464891 | 23.33° C | 31% | 1023.6 hPa | - | - | - | - |
| 1777463991 | 23.33° C | 32% | 1023.6 hPa | - | - | - | - |
| 1777463091 | 23.33° C | 32% | 1023.5 hPa | - | - | - | - |
| 1777462190 | 23.33° C | 33% | 1023.6 hPa | - | - | - | - |
| 1777461290 | 23.33° C | 34% | 1023.9 hPa | - | - | - | - |
| 1777460390 | 23.33° C | 34% | 1023.9 hPa | - | - | - | - |
| 1777459490 | 23.33° C | 35% | 1024.1 hPa | - | - | - | - |
| 1777458590 | 23.33° C | 34% | 1024.4 hPa | - | - | - | - |
| 1777457690 | 23.33° C | 34% | 1024.4 hPa | - | - | - | - |
| 1777456789 | 23.33° C | 35% | 1024.5 hPa | - | - | - | - |
| 1777455889 | 23.33° C | 35% | 1024.6 hPa | - | - | - | - |
| 1777454989 | 23.33° C | 34% | 1024.6 hPa | - | - | - | - |
* Rain since midnight (hover to see other rain measurements)
** Current wind speed in m/s (hover to see current wind gust speed)